660 visiteurs
Prévisions de votre ville :
Vigilance : 6 départements le 31/10/20 à 06:00 - Voir la carte - Être alerté(e)

Paris Roissy CDG (95380) le 31/10/20 à 06:00 Choisir station

11.9°C 84 % SSE Rafale 20 km/h
Vit. moyenne 11 km/h

Relevés météo quotidiens pour la station de :

UTC
S: Synop
M: Metar
Loc T°C
(°C)
Td
(°C)
HR
(%)
Vis
(km)
Néb
(octa)
Vent
(km/h)
Pression
(mb)
Précipitations
(mm)
Temps
              MOY
10 min
DIR RAF 1h MESURE VAR SUR 3h    
S 00 h 02h 10.3 9.5 95 15 8/8 50 67 1007.7 +0.7/3h 14.0/6h - 4.0/3h
S 01 h 03h 11.1 8.3 83 - 65 91 1007.4 +0.4/3h 0.0/1h -
S 02 h 04h 11.4 8.8 84 - 67 87 1008.1 -0.5/3h 0.0/1h -
S 03 h 05h 11.7 7.6 76 15 5/8 41 108 1006.8 -0.9/3h 0.0/1h
S 04 h 06h 11.9 8.6 80 - 76 107 1006.6 -0.8/3h 0.0/1h -
S 05 h 07h 11.9 7.4 74 - 83 106 1006.7 -1.4/3h 0.0/1h -
S 06 h 08h 12.1 7.2 72 - 85 113 1006.8 0.0/3h 14.0/12h - 0.0/3h - 14.5/24h -
S 07 h 09h 12.9 6.9 67 - 104 126 1005.7 -0.8/3h 0.0/1h -
S 08 h 10h 13.3 5.7 60 - 50 133 1007.6 +1.0/3h 0.0/1h -
S 09 h 11h 14.2 5.5 56 20 6/8 96 122 1007.9 +1.2/3h 0.0/3h
S 10 h 12h 14.6 6.2 57 - 87 126 1009.2 +3.5/3h 0.0/1h -
S 11 h 13h 15.4 5.0 50 - 91 122 1008.6 +1.0/3h 0.0/1h -
S 12 h 14h 15.9 5.2 49 20 7/8 44 108 1008.3 +0.5/3h 0.0/6h - 0.0/3h
S 13 h 15h 15.1 4.5 49 - 80 106 1008.8 -0.4/3h 0.0/1h -
S 14 h 16h 15.4 4.7 49 - 89 126 1008.9 +0.3/3h 0.0/1h -
S 15 h 17h 14.9 5.9 55 - 94 113 1008.2 -0.2/3h 0.0/3h -
S 16 h 18h 15.6 3.7 45 - 59 117 1010.4 +1.6/3h 0.0/1h -
S 17 h 19h 16.3 5.0 47 - 80 96 1009.0 +0.2/3h 0.0/1h -
S 18 h 20h 16.5 7.2 54 20 8/8 80 100 1008.7 +0.6/3h 0.0/12h - 0.0/3h
S 19 h 21h 15.9 7.9 59 - 85 109 1010.0 -0.4/3h 0.0/1h -
S 20 h 22h 15.8 7.5 58 - 85 102 1010.5 +1.4/3h 0.0/1h -
S 21 h 23h 15.4 8.4 63 20 6/8 74 106 1011.8 +3.0/3h 0.0/3h
S 22 h 00h 15.5 8.7 64 - 87 124 1010.7 +0.7/3h 0.0/1h -
S 23 h 01h 15.8 8.8 63 - 81 113 1011.7 +1.2/3h 0.0/1h -
evolution des temperatures
cumul des precipitations
vent moyen et rafales
pression atmospherique

Un tiret (-) signifie que les données ne sont pas disponibles.

Passez la souris sur les pictos temps pour avoir plus de précisions. Passez les flèches sur l'icône de la direction du vent pour voir la direction précise en degrés.

Les données de l'heure en cours sont disponibles à partir de H+15 minutes.


S signifie station Synop, plus complète qu'une station Metar (M). Il y a +1h de différence entre l'heure UTC et l'heure légale en hiver et +2h en été.

Td est la mesure du point de rosée.

HR est l'humidité relative/p>

Vis est la visibilité

Néb est la nébulosité du ciel (couverture nuageuse) exprimée en octas (de 0/8 à 8/8).

Vent moy 10 min donne le vent moyen sur les 10 minutes qui précèdent le relevé.

Vent raf 1h donne la rafale maximale mesurée dans l'heure qui précède le relevé.


Les données les plus anciennes remontent à avril 2014.

Les données présentées sur cette page proviennent des stations météo officielles. Les relevés sont effectués aux normes en vigueur (anémomètre à 10m de haut, thermomètre sous abri normalisé à 2m du sol...)

Météo 60 décline toute responsabilité en cas d'absence de données, d'erreurs, de mauvaise utilisation ou interprétation et n'est pas habilité à fournir des certificats intempéries.